Weather History for Talkeetna, AK

Change the Weather History Date:

Friday, October 5, 2012

  Actual Average Record
Temperature  
Mean Temperature 45 °F -  
Max Temperature 46 °F 45 °F 62 °F (2003)
Min Temperature 42 °F 29 °F 11 °F (1958)
Degree Days  
Heating Degree Days 20    
Moisture  
Dew Point 44 °F    
Average Humidity 97    
Maximum Humidity 100    
Minimum Humidity 93    
Precipitation  
Precipitation 0.28 in - - ()
Sea Level Pressure  
Sea Level Pressure 30.18 in    
Wind  
Wind Speed 1 mph (NE)    
Max Wind Speed 7 mph    
Max Gust Speed -    
Visibility 7 miles    
Events Rain    
Averages and records for this station are not official NWS values.
T = Trace of Precipitation, MM = Missing Value Source: NWS Daily Summary

Daily Weather History Graph

Daily Weather History Graph

Search for Another Location

Airport:

Trip Planner

Search our weather history database for the weather conditions in past years. The results will help you decide how hot, cold, wet, or windy it might be!

Date:

Astronomy

Oct. 05, 2012 Rise Set
Actual Time 8:20 AM AKDT 7:15 PM AKDT
Civil Twilight 7:35 AM AKDT 8:00 PM AKDT
Nautical Twilight 6:43 AM AKDT 8:52 PM AKDT
Astronomical Twilight 5:48 AM AKDT 9:46 PM AKDT
Moon 9:11 PM AKDT (10/5) 3:12 PM AKDT (10/5)
Length of Visible Light 12h 24m
Length of Day
10h 55m
Waning Gibbous, 73% of the Moon is Illuminated
Oct 5
Waning Gibbous
Oct 7
Last Quarter
Oct 15
New
Oct 21
First Quarter
Oct 29
Full

Hourly Weather History & Observations

Time (AKDT) Temp. Windchill Dew Point Humidity Pressure Visibility Wind Dir Wind Speed Gust Speed Precip Events Conditions
12:53 AM 46.0 °F - 45.0 °F 96% 30.17 in 10.0 mi Calm Calm - N/A   Overcast
1:53 AM 45.0 °F - 44.1 °F 97% 30.19 in 10.0 mi Calm Calm - N/A   Overcast
2:53 AM 45.0 °F - 44.1 °F 97% 30.20 in 10.0 mi Calm Calm - N/A   Overcast
3:53 AM 46.0 °F - 44.1 °F 93% 30.20 in 10.0 mi Calm Calm - N/A   Overcast
4:53 AM 45.0 °F - 44.1 °F 97% 30.21 in 10.0 mi Calm Calm - N/A   Overcast
5:29 AM 44.6 °F - 44.6 °F 100% 30.20 in 10.0 mi Calm Calm - N/A   Overcast
5:53 AM 45.0 °F 43.5 °F 44.1 °F 97% 30.22 in 10.0 mi ESE 3.5 mph - N/A   Overcast
6:53 AM 45.0 °F - 44.1 °F 97% 30.22 in 10.0 mi Calm Calm - N/A   Overcast
7:53 AM 45.0 °F - 44.1 °F 97% 30.23 in 10.0 mi Calm Calm - N/A   Overcast
8:53 AM 45.0 °F - 44.1 °F 97% 30.23 in 10.0 mi Calm Calm - N/A   Overcast
9:53 AM 45.0 °F - 44.1 °F 97% 30.22 in 10.0 mi Calm Calm - N/A   Overcast
10:53 AM 46.0 °F - 44.1 °F 93% 30.23 in 10.0 mi Calm Calm - N/A   Overcast
11:53 AM 46.0 °F - 44.1 °F 93% 30.24 in 10.0 mi Calm Calm - N/A   Overcast
12:53 PM 46.0 °F - 45.0 °F 96% 30.22 in 7.0 mi Calm Calm - 0.03 in Rain Light Rain
1:53 PM 46.9 °F - 46.0 °F 97% 30.20 in 2.5 mi Calm Calm - 0.07 in Rain Rain
1:56 PM 46.4 °F - 46.4 °F 100% 30.19 in 3.0 mi Calm Calm - 0.01 in Rain Rain
2:53 PM 46.0 °F - 46.0 °F 100% 30.19 in 5.0 mi Calm Calm - 0.07 in Rain Rain
3:53 PM 46.9 °F - 46.0 °F 97% 30.17 in 5.0 mi Calm Calm - 0.06 in Rain Light Rain
4:03 PM 46.4 °F - 46.4 °F 100% 30.15 in 4.0 mi Calm Calm - 0.01 in Rain Light Rain
4:53 PM 46.0 °F - 46.0 °F 100% 30.15 in 4.0 mi Calm Calm - 0.08 in Rain Rain
5:04 PM 46.4 °F - 46.4 °F 100% 30.13 in 3.0 mi Calm Calm - 0.01 in Rain Rain
5:53 PM 46.9 °F - 46.0 °F 97% 30.13 in 6.0 mi NE 4.6 mph - 0.05 in Rain Light Rain
6:53 PM 46.0 °F 44.8 °F 44.1 °F 93% 30.14 in 5.0 mi ENE 3.5 mph - 0.08 in Rain Rain
7:53 PM 44.1 °F 40.8 °F 42.1 °F 93% 30.13 in 10.0 mi NE 5.8 mph - 0.05 in Rain Light Rain
8:53 PM 44.1 °F 40.1 °F 42.1 °F 93% 30.12 in 10.0 mi ENE 6.9 mph - 0.00 in   Overcast
9:42 PM 42.8 °F 40.1 °F 42.8 °F 100% 30.12 in 4.0 mi NNE 4.6 mph - 0.01 in Rain Light Rain
9:53 PM 43.0 °F 41.3 °F 42.1 °F 97% 30.14 in 3.0 mi NNE 3.5 mph - 0.01 in Rain Light Rain
10:20 PM 42.8 °F 39.3 °F 42.8 °F 100% 30.12 in 3.0 mi NNE 5.8 mph - 0.01 in Rain Light Rain
10:53 PM 42.1 °F 39.2 °F 41.0 °F 96% 30.13 in 4.0 mi NNE 4.6 mph - 0.03 in Rain Light Rain
11:31 PM 42.8 °F 40.1 °F 41.0 °F 93% 30.11 in 2.5 mi NNE 4.6 mph - 0.02 in Rain Light Rain
11:53 PM 42.1 °F 38.4 °F 41.0 °F 96% 30.13 in 2.5 mi North 5.8 mph - 0.04 in Rain Light Rain